Location: Grange Rosano
(44.4500°N, 6.9667°E)
Time: 08:01:37
(UTC+00:00)

USA 306 - Pass Details

Date: 26 May 2022
Orbit: 545 x 556 km, 54.0° (Epoch: 20 June)

Event Time Altitude Azimuth Distance (km) Brightness Sun altitude
Exits shadow 01:42:37 15° 277° (W) 1,565 4.9 -17.7°
Maximum altitude 01:45:40 35° 338° (NNW) 918 4.2 -17.4°
Drops below altitude 10° 01:49:33 10° 45° (NE) 1,849 6.8 -17.0°
Sets 01:51:57 0° 55° (NE) 2,749 7.8 -16.8°
